User: anonymous   Login
Location: Unspecified
(0.0000°N, 0.0000°E)
Time: 01:17:04
(UTC+00:00)
Language:

Azur - Orbit

View from above orbital plane
View from above orbital plane
View from above satellite
View from above satellite

Ground track
Ground track

The orbit data is extracted from the following two-line orbital elements,

1  4221U 69097A   18347.85414835  .00003504  00000-0  16639-3 0  9991
2  4221 102.6904 103.1367 0626482 202.4266 154.8374 14.25851711326721
Epoch (UTC): 13 December 2018 20:29:58
Eccentricity: 0.0626482
inclination: 102.6904°
perigee height: 355 km
apogee height: 1255 km
right ascension of ascending node: 103.1367°
argument of perigee: 202.4266°
revolutions per day: 14.25851711
mean anomaly at epoch: 154.8374°
orbit number at epoch: 32672

The dashed part of the orbit path shows where the satellite is in the earth's shadow,  

DLR